Miscellaneous Local Product
Issued by NWS Hastings, NE

Home | Current Version | Previous Version | Graphics & Text | Print | Product List | Glossary On
Versions: 1 2 3 4 5 6 7 8 9 10 11 12 13 14 15 16 17 18 19 20 21 22 23 24 25 26 27 28 29 30 31 32 33 34 35 36 37 38 39 40 41 42 43 44 45 46 47 48 49 50
000
AXUS43 KGID 042102
MISGRI

GID CWA HOURLY WEATHER ROUNDUP
NATIONAL WEATHER SERVICE HASTINGS NE
300 PM CST WED MAR 04 2015

NOTE: "FAIR" INDICATES FEW OR NO CLOUDS BELOW 12,000 FEET WITH NO
SIGNIFICANT WEATHER AND/OR OBSTRUCTIONS TO VISIBILITY.

...SOUTH CENTRAL NEBRASKA...

CITY           SKY/WX    TMP DP  RH WIND       PRES   REMARKS
GRAND ISLAND   MOSUNNY   29   4  34 NW16      30.26F WCI  17
HASTINGS       MOSUNNY   29   8  41 N17       30.25F WCI  17
KEARNEY        FAIR      28   7  40 NW15      30.24F WCI  17
ORD            SUNNY     27  -4  26 NW14G26   30.24F WCI  16
YORK           MOSUNNY   28   7  40 N13G25    30.27S WCI  18
AURORA         MOSUNNY   29   8  40 NW16G24   30.26F WCI  17
LEXINGTON      MOSUNNY   31  10  41 N15G21    30.22F WCI  21
HOLDREGE       MOSUNNY   28   8  44 NW9       30.24F WCI  19
HEBRON         PTSUNNY   32   5  32 N10G21    30.28F WCI  23

...NEBRASKA PANHANDLE...

CITY           SKY/WX    TMP DP  RH WIND       PRES   REMARKS
CHADRON        SUNNY     18   4  54 W14       30.21F WCI   4
ALLIANCE       SUNNY     23   0  36 NW21      30.14F WCI   8
SCOTTSBLUFF    SUNNY     25   3  38 NW13      30.16F WCI  14
SIDNEY         MOSUNNY   25   5  42 W15       30.14F WCI  13

...WESTERN AND NORTH CENTRAL NEBRASKA...

CITY           SKY/WX    TMP DP  RH WIND       PRES   REMARKS
VALENTINE      PTSUNNY   18   1  47 NW16G25   30.25S WCI   3
AINSWORTH      SUNNY     20  -2  37 NW14G24   30.23F WCI   7
ONEILL         SUNNY     22  -2  34 NW18G32   30.27F WCI   7
BROKEN BOW     MOSUNNY   29  -1  27 W15G29    30.21F WCI  18
IMPERIAL         N/A     29   7  39 N18       30.19F WCI  16
NORTH PLATTE   MOSUNNY   31  -1  25 NW21G26   30.20F WCI  18
MCCOOK         SUNNY     31   6  35 NW12G23   30.23F WCI  22

...EASTERN NEBRASKA...

CITY           SKY/WX    TMP DP  RH WIND       PRES   REMARKS
NORFOLK        SUNNY     26  -4  27 NW20G31   30.26F WCI  12
SO SIOUX CITY  SUNNY     22  -3  33 NW29G36   30.30R WCI   4
TEKAMAH        SUNNY     27  -3  27 NW23G32   30.30R WCI  12
COLUMBUS       SUNNY     28  -4  24 NW21G33   30.29R WCI  15
ALBION         SUNNY     26  -6  24 N23G33    30.26F WCI  12
OMAHA EPPLEY   MOSUNNY   29  -4  24 NW26G32   30.28R WCI  14
OFFUTT AFB     SUNNY     30  -3  24 NW17G26   30.27R WCI  18
MILLARD        SUNNY     30  -3  24 NW17G28   30.29R WCI  18
LINCOLN        SUNNY     31   1  28 N24G30    30.29S WCI  17
NEBRASKA CITY  SUNNY     32  -4  21 NW20G25   30.27F WCI  20
BEATRICE       PTSUNNY   32   5  32 NW18G24   30.27F WCI  20
FALLS CITY     MOSUNNY   32   4  30 N17       30.27F WCI  21

...NORTHERN KANSAS...

CITY           SKY/WX    TMP DP  RH WIND       PRES   REMARKS
GOODLAND       SUNNY     28   7  41 NW13      30.18F WCI  17
HILL CITY      SUNNY     33   4  29 N21       30.26F WCI  21
NORTON         PTCLDY    30   3  31 NW12G21   30.24S WCI  21
PHILLIPSBURG   MOSUNNY   34   9  35 NW9       30.28S WCI  26
SMITH CENTER   SUNNY     30   5  34 NW15G25   30.28S WCI  19
BELOIT         SUNNY     34   1  25 NW16      30.29R WCI  23
HAYS           SUNNY     34   1  25 N12       30.27S WCI  25
RUSSELL        SUNNY     33   1  25 N13G23    30.27R WCI  24
CONCORDIA      MOSUNNY   31   4  31 NW9       30.31R WCI  23
SALINA         MOSUNNY   33   1  25 N13G23    30.30F WCI  24
TOPEKA         CLOUDY    31   5  33 N14       30.30F WCI  21



USA.gov is the U.S. government's official web portal to all federal, state and local government web resources and services.